Location: Ferchesar
(52.6477°N, 12.4298°E)
Time: 02:41:38
(UTC+01:00)

BUGSAT 1 - Pass Details

Date: 23 October 2021
Orbit: 558 x 601 km, 98.1° (Epoch: 01 December)

Event Time Altitude Azimuth Distance (km) Brightness Sun altitude
Rises 05:26:24 0° 23° (NNE) 2,759 ? -22.4°
Reaches altitude 10° 05:28:48 10° 36° (NE) 1,858 ? -22.1°
Maximum altitude 05:32:13 26° 95° (E) 1,116 ? -21.5°
Drops below altitude 10° 05:35:38 10° 153° (SSE) 1,853 ? -21.0°
Sets 05:38:02 0° 166° (SSE) 2,749 ? -20.7°
